This demonstration page uses our WeatherBlox Daily Observations layout. Learn more.

Hourly Observations for October 19, 2020

Temp ( °F °C ) Dew Point ( °F °C ) Humidity (%) Winds ( mph kmh ) Pressure ( in mb ) Visibility ( mi km ) Precip ( " mm )
12:54 am 00:54 Cloudy 36 2.2 30 -1.1 79 79 ENE 7 11 30.31 1026 10 16.0934 0 0
1:54 am 01:54 Cloudy 37 2.8 30 -1.1 76 76 NNE 3 6 30.34 1028 10 16.0934 0 0
2:54 am 02:54 Cloudy 37 2.8 30 -1.1 76 76 ENE 8 13 30.29 1026 10 16.0934 0 0
5:54 am 05:54 Cloudy 37 2.8 27 -2.8 67 67 E 6 9 30.25 1024 10 16.0934 0 0
6:54 am 06:54 Cloudy 37 2.8 27 -2.8 67 67 E 8 13 30.24 1024 10 16.0934 0 0
7:54 am 07:54 Cloudy with Light Rain 37 2.8 28 -2.2 70 70 NE 6 9 30.27 1025 10 16.0934 0.001 0.001
8:54 am 08:54 Cloudy 37 2.8 30 -1.1 76 76 NE 9 15 30.27 1025 10 16.0934 0.001 0.001
9:54 am 09:54 Cloudy 37 2.8 29 -1.7 73 73 ESE 10 17 30.28 1025 10 16.0934 0 0
10:54 am 10:54 Cloudy 39 3.9 30 -1.1 70 70 SSE 20 31 30.22 1023 10 16.0934 0 0
11:54 am 11:54 Mostly Cloudy 43 6.1 31 -0.6 63 63 ESE 12 19 30.22 1023 10 16.0934 0 0
12:54 pm 12:54 Sunny 47 8.3 31 -0.6 54 54 SE 12 19 30.21 1023 10 16.0934 0 0
1:54 pm 13:54 Sunny 49 9.4 30 -1.1 48 48 SSE 10 17 30.17 1022 10 16.0934 0 0
2:54 pm 14:54 Sunny 49 9.4 31 -0.6 50 50 ESE 3 6 30.16 1021 10 16.0934 0 0
3:54 pm 15:54 Partly Cloudy 49 9.4 32 0 52 52 SE 6 9 30.16 1021 10 16.0934 0 0
4:54 pm 16:54 Sunny 48 8.9 31 -0.6 52 52 ESE 6 9 30.16 1021 10 16.0934 0 0
5:54 pm 17:54 Sunny 47 8.3 31 -0.6 54 54 ESE 8 13 30.16 1021 10 16.0934 0 0
6:54 pm 18:54 Clear 44 6.7 29 -1.7 55 55 ESE 7 11 30.18 1022 10 16.0934 0 0
7:54 pm 19:54 Clear 42 5.6 30 -1.1 62 62 ESE 6 9 30.18 1022 10 16.0934 0 0
8:54 pm 20:54 Clear 42 5.6 30 -1.1 62 62 SSE 5 7 30.19 1022 10 16.0934 0 0
9:54 pm 21:54 Clear 41 5 30 -1.1 65 65 SE 7 11 30.19 1022 10 16.0934 0 0
10:54 pm 22:54 Mostly Clear 40 4.4 31 -0.6 70 70 SSE 6 9 30.21 1023 10 16.0934 0 0
11:18 pm 23:18 Mostly Cloudy 42 5.6 31 -0.6 65 65 SE 7 11 30.21 1023 10 16.0934 0 0
11:54 pm 23:54 Cloudy 41 5 30 -1.1 65 65 SE 7 11 30.19 1023 10 16.0934 0 0

Powered by AerisWeather